Regional Weather Roundup
Issued by NWS Sterling, VA

Home | Current Version | Previous Version | Text Only | Print | Product List | Glossary Off
Versions: 1 2 3 4 5 6 7 8 9 10 11 12 13 14 15 16 17 18 19 20 21 22 23 24 25 26 27 28 29 30 31 32 33 34 35 36 37 38 39 40 41 42 43 44 45 46 47 48 49 50

000
ASUS41 KLWX 021410
RWRLWX

REGIONAL WEATHER ROUNDUP
NATIONAL WEATHER SERVICE BALTIMORE MD/WASHINGTON DC
1000 AM EDT WED SEP 02 2015

Note: "FAIR" indicates few or no clouds below 12,000 feet
with no significant weather and/or obstructions to visibility.
 TC=TEMPERATURE CELSIUS

 * =Non NWS site. Station does not report precipitation (e.g. rain,
    snow, etc.), thunder, or fog.

DCZ001-MDZ009-015-VAZ040>042-051-053>054-021500-
WASHINGTON METRO

CITY           SKY/WX    TMP DP  RH WIND       PRES   REMARKS
WASHINGTON NAT CLOUDY    83  71  67 N3        30.05F
DULLES         PTSUNNY   82  67  60 NW6       30.06F
ANDREWS AFB    PTSUNNY   82  70  65 N2        30.04F
FT BELVOIR     MOSUNNY   83  68  59 NW6       30.04F
QUANTICO       PTSUNNY   81  70  69 E5        30.05F
COLLEGE PARK*  PTSUNNY   81  72  74 CALM      30.04S
LEESBURG*      PTSUNNY   81  72  74 N5        30.07S
MANASSAS*      SUNNY     82  70  65 N3        30.05F
GAITHERSBURG*  PTSUNNY   79  66  65 CALM      30.10S

$$

MDZ006>007-011-014-021500-
BALTIMORE METRO

CITY           SKY/WX    TMP DP  RH WIND       PRES   REMARKS
BWI AIRPORT    CLOUDY    81  66  60 CALM      30.04F
MD SCIENCE CTR   N/A     83  65  54 MISG      30.04F
MARTIN STATE   CLOUDY    81  72  74 CALM      30.05F
ANNAPOLIS      PTSUNNY   80  75  84 NW3       30.03F HAZE
FORT MEADE*    PTSUNNY   79  70  73 CALM      30.06F

$$

MDZ012-015-019>023-021500-
MARYLAND EASTERN SHORE

CITY           SKY/WX    TMP DP  RH WIND       PRES   REMARKS
OCEAN CITY     MOSUNNY   82  72  71 VRB3      30.03F
SALISBURY      MOSUNNY   80  74  81 VRB3      30.03F
BAY BRIDGE AP*   N/A     79  72  78 NW3       30.03F
CAMBRIDGE*     MOSUNNY   81  72  74 CALM      30.02F
EASTON*        PTSUNNY   82  75  78 NW3       30.07F

$$

MDZ017>025-021500-
SOUTHERN MARYLAND

CITY           SKY/WX    TMP DP  RH WIND       PRES   REMARKS
PATUXENT RIVER CLOUDY    82  71  69 NW6       30.03F
ST INIGOES     MOSUNNY   83  74  74 CALM      30.02F
LEONARDTOWN*   NOT AVBL

$$

MDZ003>005-021500-
NORTH CENTRAL MARYLAND

CITY           SKY/WX    TMP DP  RH WIND       PRES   REMARKS
FREDERICK*     MOSUNNY   77  68  73 CALM      30.09F
HAGERSTOWN APT MOSUNNY   78  66  66 VRB3      30.08F
WESTMINSTER*   PTSUNNY   79  64  61 N3        30.08S

$$

MDZ501>502-021500-
WESTERN MARYLAND

CITY           SKY/WX    TMP DP  RH WIND       PRES   REMARKS
OAKLAND*       MOSUNNY   72  64  78 W5        30.22S
CUMBERLAND*    MOSUNNY   75  68  78 S3        30.14S

$$

VAZ025>031-021500-
SHENANDOAH VALLEY

CITY           SKY/WX    TMP DP  RH WIND       PRES   REMARKS
WINCHESTER*    PTSUNNY   81  66  61 CALM      30.08F
FRONT ROYAL*   FAIR      77  68  73 CALM      30.08S
LURAY*         FAIR      73  68  83 CALM      30.11S
NEW MARKET*    CLOUDY    76  69  78 CALM      30.10S
STAUNTON*      PTSUNNY   76  71  84 CALM      30.14S
WAYNESBORO*    FAIR      74  69  85 CALM      30.14S

$$

WVZ021-048>050-054>055-021500-
EASTERN WEST VIRGINIA PANHANDLE

CITY           SKY/WX    TMP DP  RH WIND       PRES   REMARKS
MARTINSBURG    PTSUNNY   77  66  68 CALM      30.08F
PETERSBURG*    CLOUDY    72  69  88 CALM      30.13F

$$

VAZ036>039-050-021500-
CENTRAL FOOTHILLS

CITY           SKY/WX    TMP DP  RH WIND       PRES   REMARKS
CHARLOTTESVILL CLOUDY    79  70  74 CALM      30.07F
CULPEPER*      CLOUDY    78  70  76 CALM      30.06F
ORANGE*        CLOUDY    81  70  69 CALM      30.08S
GORDONSVILLE*  FAIR      80  70  71 CALM      30.06S
WARRENTON*     FAIR      85  72  65 NW3       30.05F HX  91

$$

VAZ055>057-021500-
NORTH AND CENTRAL PIEDMONT

CITY           SKY/WX    TMP DP  RH WIND       PRES   REMARKS
FREDERICKSBRG* MOSUNNY   83  71  66 CALM      30.03F
STAFFORD*      PTSUNNY   83  68  60 CALM      30.08F

$$

NCZ024-NYZ072-PAZ021-071-VAZ022-071-021500-
OTHER REGIONAL OBSERVATIONS

CITY           SKY/WX    TMP DP  RH WIND       PRES   REMARKS
NEW YORK CITY  SUNNY     82  66  58 VRB3      30.05F
PHILADELPHIA   PTSUNNY   79  71  76 SE5       30.03F HAZE
PITTSBURGH     PTSUNNY   78  68  71 VRB3      30.11F
ROANOKE        MOSUNNY   80  67  64 VRB5      30.15S
RICHMOND       CLOUDY    86  69  56 SW6       30.04F HX  90
RALEIGH        PTSUNNY   82  71  69 CALM      30.08F

$$

ANZ530>537-021500-
MARINE OBSERVATIONS

STATION/POSITION TIME  TEMP    WIND        PRES
                       AIR SEA DIR/SP/G
                 (UTC) (F)     (DEG/KT/KT) (MB)
THOMAS PT LIGHT  1300   78 79  340/  2     1017.8
BALT KEY BRIDGE  1300   78     240/  2/  2 1017.3R
COVE POINT       1300   77     340/  7/  8 1017.9R
LEWISETTA        1300   79 80  270/  4/  6 1016.7F
SOLOMONS ISLAND  1300      80                N/A
PINEY POINT      1305          330/  6/  8   N/A

$$



USA.gov is the U.S. government's official web portal to all federal, state and local government web resources and services.